Location: Aranbee
(34.0885°N, 118.2342°W)
Time: 13:18:04
(UTC+00:00)

Tiros 1 - Pass Details

Date: 04 December 2020
Orbit: 630 x 663 km, 48.4° (Epoch: 21 January)

Event Time Altitude Azimuth Distance (km) Brightness Sun altitude
Rises 04:28:07 0° 300° (WNW) 2,976 11.2 -45.9°
Enters shadow 04:28:46 - 298° (WNW) 2,734 11.0 -46.0°
Reaches altitude 10° 04:30:37 10° 291° (WNW) 2,057 - -46.4°
Maximum altitude 04:34:55 35° 226° (SW) 1,044 - -47.3°
Drops below altitude 10° 04:39:10 10° 161° (SSE) 2,028 - -48.1°
Sets 04:41:38 0° 152° (SSE) 2,928 - -48.6°
